CW9454 Weather Reports


Display with metric or nautical units.
time (UTC)temp
F
wind
direction
speed
MPH
gust
MPH
rain 1hr
in
rain 24hr
in
rain mn
in
humidity
%
barometer
mb
20260906201023 81 106 0.0 1.0 0.00 0.00 0.00 66 1014.6
20260906200031 81 94 1.0 3.0 0.00 0.00 0.00 66 1014.7
20260906195044 80 80 0.0 3.0 0.00 0.00 0.00 67 1014.7
20260906194018 81 128 0.0 4.0 0.00 0.00 0.00 66 1014.8
20260906193013 81 125 1.0 5.0 0.00 0.00 0.00 64 1014.9
20260906192026 82 73 0.0 3.0 0.00 0.00 0.00 67 1014.8
20260906191023 81 55 0.0 4.0 0.00 0.00 0.00 66 1015.0
20260906190030 81 71 1.0 4.0 0.00 0.00 0.00 64 1014.9
20260906185024 80 112 0.0 2.0 0.00 0.00 0.00 67 1015.1
20260906184037 80 116 0.0 4.0 0.00 0.00 0.00 67 1015.2
20260906183021 80 126 0.0 4.0 0.00 0.00 0.00 68 1015.3
20260906182047 80 117 1.0 3.0 0.00 0.00 0.00 69 1015.3
20260906181038 80 127 0.0 5.0 0.00 0.00 0.00 69 1015.4
20260906180024 80 111 0.0 3.0 0.00 0.00 0.00 68 1015.4
20260906175014 79 113 0.0 6.0 0.00 0.00 0.00 69 1015.4
20260906174027 79 111 0.0 0.0 0.00 0.00 0.00 71 1015.5
20260906173013 78 112 0.0 2.0 0.00 0.00 0.00 69 1015.7
20260906172036 78 107 0.0 3.0 0.00 0.00 0.00 70 1015.6
20260906171021 78 104 0.0 0.0 0.00 0.00 0.00 69 1015.6
20260906170037 78 104 0.0 2.0 0.00 0.00 0.00 69 1015.6
20260906165017 78 111 0.0 2.0 0.00 0.00 0.00 68 1015.6
20260906164028 79 111 0.0 0.0 0.00 0.00 0.00 68 1015.8
20260906163020 79 108 0.0 1.0 0.00 0.00 0.00 67 1015.9
20260906162034 80 107 0.0 1.0 0.00 0.00 0.00 66 1015.9
20260906161028 80 83 0.0 0.0 0.00 0.00 0.00 65 1015.8
20260906160044 80 84 0.0 0.0 0.00 0.00 0.00 66 1015.9
20260906155036 81 86 0.0 0.0 0.00 0.00 0.00 65 1016.0
20260906154050 81 86 0.0 0.0 0.00 0.00 0.00 64 1016.1
20260906153023 81 86 0.0 0.0 0.00 0.00 0.00 65 1016.1
20260906152017 80 85 0.0 1.0 0.00 0.00 0.00 65 1016.0
20260906151031 80 82 0.0 2.0 0.00 0.00 0.00 67 1015.6
20260906150019 79 84 0.0 2.0 0.00 0.00 0.00 66 1015.5
20260906145032 78 5 0.0 1.0 0.00 0.00 0.00 69 1015.4
20260906144018 77 49 0.0 0.0 0.00 0.00 0.00 71 1015.4
20260906143040 75 309 0.0 1.0 0.00 0.00 0.00 73 1015.5
20260906142024 74 303 1.0 5.0 0.00 0.00 0.00 76 1015.6
20260906141015 73 5 0.0 0.0 0.00 0.00 0.00 77 1015.5
20260906140023 72 17 0.0 3.0 0.00 0.00 0.00 77 1015.4
20260906135017 71 333 0.0 2.0 0.00 0.00 0.00 79 1015.3
20260906134101 71 331 0.0 2.0 0.00 0.00 0.00 79 1015.2
20260906133024 70 338 0.0 1.0 0.00 0.00 0.00 80 1015.3
20260906132017 70 334 0.0 2.0 0.00 0.00 0.00 81 1015.2
20260906131026 69 63 0.0 3.0 0.00 0.00 0.00 81 1015.3
20260906130032 69 308 0.0 5.0 0.00 0.00 0.00 83 1015.2
20260906125027 69 309 0.0 6.0 0.00 0.00 0.00 83 1015.1
20260906124021 68 312 0.0 4.0 0.00 0.00 0.00 83 1015.1
20260906123035 68 311 0.0 4.0 0.00 0.00 0.00 84 1014.9
20260906122031 68 315 0.0 1.0 0.00 0.00 0.00 83 1015.0
20260906121024 68 315 0.0 3.0 0.00 0.00 0.00 83 1014.8
20260906120051 67 307 0.0 4.0 0.00 0.00 0.00 83 1014.9
20260906115025 67 303 0.0 4.0 0.00 0.00 0.00 83 1014.7
20260906114020 67 321 0.0 2.0 0.00 0.00 0.00 84 1014.6
20260906113014 67 321 0.0 3.0 0.00 0.00 0.00 84 1014.6
20260906112029 67 325 0.0 0.0 0.00 0.00 0.00 84 1014.5
20260906111042 67 325 0.0 2.0 0.00 0.00 0.00 84 1014.4
20260906110029 66 320 1.0 6.0 0.00 0.00 0.00 85 1014.3
20260906105015 66 322 0.0 0.0 0.00 0.00 0.00 85 1014.2
20260906104057 66 322 0.0 0.0 0.00 0.00 0.00 85 1013.9
20260906103031 66 322 0.0 2.0 0.00 0.00 0.00 85 1013.8
20260906102015 66 322 0.0 0.0 0.00 0.00 0.00 85 1013.8
20260906101031 66 322 0.0 0.0 0.00 0.00 0.00 85 1013.5
20260906100020 66 322 0.0 1.0 0.00 0.00 0.00 85 1013.5
20260906095034 66 322 0.0 5.0 0.00 0.00 0.00 85 1013.5
20260906094036 66 344 0.0 0.0 0.00 0.00 0.00 85 1013.3
20260906093023 67 344 0.0 0.0 0.00 0.00 0.00 84 1013.2
20260906092018 67 344 0.0 0.0 0.00 0.00 0.00 84 1013.3
20260906091029 67 344 0.0 1.0 0.00 0.00 0.00 84 1013.0
20260906090016 67 340 0.0 0.0 0.00 0.00 0.00 84 1012.9
20260906085029 67 340 0.0 1.0 0.00 0.00 0.00 84 1012.9
20260906084044 67 341 0.0 1.0 0.00 0.00 0.00 84 1013.0
20260906083017 67 340 0.0 0.0 0.00 0.00 0.00 84 1012.9
20260906082031 67 340 0.0 3.0 0.00 0.00 0.00 84 1013.0
20260906081024 67 349 0.0 0.0 0.00 0.00 0.00 83 1012.8
20260906080030 68 349 0.0 0.0 0.00 0.00 0.00 83 1012.6
20260906075025 68 349 0.0 0.0 0.00 0.00 0.00 83 1012.7
20260906074038 68 349 0.0 0.0 0.00 0.00 0.00 83 1012.5
20260906073031 68 349 0.0 1.0 0.00 0.00 0.00 83 1012.5
20260906072025 68 349 0.0 1.0 0.00 0.00 0.00 83 1012.4
20260906071034 68 349 0.0 0.0 0.00 0.00 0.00 83 1012.4
20260906070021 68 349 0.0 0.0 0.00 0.00 0.00 83 1012.5
20260906065035 68 349 0.0 1.0 0.00 0.00 0.00 83 1012.6
20260906064029 68 349 0.0 0.0 0.00 0.00 0.00 83 1012.7
20260906063041 68 349 0.0 0.0 0.00 0.00 0.00 83 1012.7
20260906062026 68 349 0.0 0.0 0.00 0.00 0.00 84 1012.5
20260906061022 68 349 0.0 0.0 0.00 0.00 0.00 84 1012.5
20260906060058 68 349 0.0 0.0 0.00 0.00 0.00 85 1012.4
20260906055049 67 349 0.0 0.0 0.00 0.00 0.00 85 1012.6
20260906054022 67 346 0.0 0.0 0.00 0.00 0.00 86 1012.7
20260906053031 67 346 0.0 0.0 0.00 0.00 0.00 86 1012.7
20260906052016 67 346 0.0 0.0 0.00 0.00 0.00 86 1012.9
20260906051030 68 346 0.0 0.0 0.00 0.00 0.00 86 1012.6
20260906050018 68 346 0.0 0.0 0.00 0.00 0.00 85 1012.9
20260906045041 68 346 0.0 0.0 0.00 0.00 0.00 85 1013.0
20260906044024 68 346 0.0 0.0 0.00 0.00 0.00 84 1013.0
20260906043019 68 346 0.0 0.0 0.00 0.00 0.00 84 1013.0
20260906042033 68 346 0.0 0.0 0.00 0.00 0.00 83 1013.0
20260906041028 69 346 0.0 0.0 0.00 0.00 0.00 83 1012.9
20260906040015 69 346 0.0 0.0 0.00 0.00 0.00 83 1012.8
20260906035029 69 346 0.0 0.0 0.00 0.00 0.00 82 1012.9
20260906034024 69 346 0.0 0.0 0.00 0.00 0.00 81 1012.9
20260906033040 69 346 0.0 0.0 0.00 0.00 0.00 80 1013.1
20260906032026 70 346 0.0 0.0 0.00 0.00 0.00 80 1013.1
20260906031020 70 346 0.0 0.0 0.00 0.00 0.00 79 1012.9
20260906030038 70 346 0.0 0.0 0.00 0.00 0.00 79 1012.9
20260906025023 71 346 0.0 0.0 0.00 0.00 0.00 78 1012.8
20260906024016 71 346 0.0 0.0 0.00 0.00 0.00 77 1013.0
20260906023031 72 346 0.0 0.0 0.00 0.00 0.00 77 1012.9
20260906022025 72 346 0.0 0.0 0.00 0.00 0.00 76 1012.7
20260906021018 73 346 0.0 0.0 0.00 0.00 0.00 75 1012.8
20260906020025 73 346 0.0 0.0 0.00 0.00 0.00 74 1012.6
20260906015018 73 346 0.0 0.0 0.00 0.00 0.00 74 1012.6
20260906014034 74 346 0.0 0.0 0.00 0.00 0.00 73 1012.3
20260906013019 74 346 0.0 0.0 0.00 0.00 0.00 72 1012.3
20260906012044 75 346 0.0 1.0 0.00 0.00 0.00 71 1012.3
20260906011036 75 346 0.0 0.0 0.00 0.00 0.00 70 1012.3
20260906010025 76 346 0.0 1.0 0.00 0.00 0.00 69 1012.2
20260906005039 76 355 0.0 0.0 0.00 0.00 0.00 67 1012.1
20260906004024 76 355 0.0 0.0 0.00 0.00 0.00 67 1011.9
20260906003020 77 355 0.0 0.0 0.00 0.00 0.00 66 1012.0
20260906002015 77 355 0.0 2.0 0.00 0.00 0.00 65 1011.8
20260906001025 78 333 0.0 0.0 0.00 0.00 0.00 64 1011.6
20260906000013 78 332 0.0 0.0 0.00 0.00 0.00 64 1011.6
20260905235028 78 332 0.0 1.0 0.00 0.00 0.00 63 1011.7
20260905234023 79 332 0.0 5.0 0.00 0.00 0.00 62 1011.4
20260905233037 79 311 0.0 6.0 0.00 0.00 0.00 62 1011.3
20260905232021 80 32 0.0 3.0 0.00 0.00 0.00 63 1011.2
20260905231015 80 355 0.0 3.0 0.00 0.00 0.00 63 1011.1
20260905230022 80 308 0.0 3.0 0.00 0.00 0.00 64 1011.2
20260905225018 80 329 0.0 6.0 0.00 0.00 0.00 62 1011.2
20260905224013 81 328 0.0 3.0 0.00 0.00 0.00 64 1011.0
20260905223028 81 351 0.0 2.0 0.00 0.00 0.00 67 1011.0
20260905222026 81 5 0.0 3.0 0.00 0.00 0.00 67 1010.8
20260905221039 81 13 0.0 0.0 0.00 0.00 0.00 66 1010.8
20260905220027 81 13 0.0 1.0 0.00 0.00 0.00 64 1010.6
20260905215043 81 13 0.0 0.0 0.00 0.00 0.00 67 1010.6
20260905214016 82 13 0.0 0.0 0.00 0.00 0.00 67 1010.5
20260905213031 82 13 0.0 0.0 0.00 0.00 0.00 67 1010.4
20260905212017 82 13 0.0 0.0 0.00 0.00 0.00 67 1010.3
20260905211038 82 13 0.0 0.0 0.00 0.00 0.00 68 1010.2
20260905210016 82 13 0.0 0.0 0.00 0.00 0.00 66 1010.2
20260905205040 82 13 0.0 0.0 0.00 0.00 0.00 64 1010.3
20260905204025 83 13 0.0 0.0 0.00 0.00 0.00 64 1010.4
20260905203018 83 13 0.0 0.0 0.00 0.00 0.00 64 1010.5
20260905202012 83 13 0.0 0.0 0.00 0.00 0.00 65 1010.4